Location: Observatory
(52.1446°N, 0.4624°W)
Time: 10:19:48
(UTC+01:00)

ISS - Pass Details

Date: 08 July 2020
Orbit: 417 x 420 km, 51.6° (Epoch: 02 July)

Event Time Altitude Azimuth Distance (km) Brightness Sun altitude
Exits shadow 03:56:06 - 265° (W) 2,263 -0.5 -6.8°
Reaches altitude 10° 03:57:58 10° 265° (W) 1,497 -1.4 -6.6°
Maximum altitude 04:01:20 84° 177° (S) 425 -3.8 -6.3°
Drops below altitude 10° 04:04:41 10° 90° (E) 1,497 -0.3 -6.0°
Sets 04:06:47 0° 89° (E) 2,360 0.7 -5.8°
